Regional Weather Roundup
Issued by NWS Albany, NY

Home | Current Version | Previous Version | Text Only | Print | Product List | Glossary On
Versions: 1 2 3 4 5 6 7 8 9 10 11 12 13 14 15 16 17 18 19 20 21 22 23 24 25 26 27 28
000
ASUS41 KALY 242010
RWRALY

NEW YORK STATE HOURLY WEATHER ROUNDUP
NATIONAL WEATHER SERVICE ALBANY NY
400 PM EDT TUE MAY 24 2016

NOTE: "FAIR" INDICATES FEW OR NO CLOUDS BELOW 12,000 FEET WITH NO
SIGNIFICANT WEATHER AND/OR NO OBSTRUCTIONS TO VISIBILITY.

NYZ032-033-038>043-046>054-057>066-NYZ062>081-082-084-242100-
EAST


CITY           SKY/WX    TMP DP  RH WIND       PRES   REMARKS
ALBANY         PTSUNNY   66  54  65 NE7       29.93F
GLENS FALLS    LGT RAIN  69  52  54 CALM      29.93S
POUGHKEEPSIE   CLOUDY    74  54  49 N12G17    29.91S
NEWBURGH       PTSUNNY   68  37  32 NE8       29.94R
MONTGOMERY     CLOUDY    71  55  56 NE5       29.92R
WHITE PLAINS   PTSUNNY   67  55  65 NW8       29.91S
ISLIP          CLOUDY    64  59  83 N7        29.90S
NEW YORK CITY  CLOUDY    71  56  58 N8        29.90S
CENTRAL PARK   CLOUDY    71  51  49 NE7       29.93S
$$

NYZ005>009-017-018-044>046-055-056-242100-
CENTRAL


CITY           SKY/WX    TMP DP  RH WIND       PRES   REMARKS
FULTON         SUNNY     76  36  23 NW9       29.95S
SYRACUSE       MOSUNNY   78  29  16 NW16G25   29.93R
ROME           SUNNY     79  40  24 W21G28    29.90R
ELMIRA         MOSUNNY   79  40  24 NW12      29.94S
BINGHAMTON     SUNNY     75  38  26 N18       29.95R
MONTICELLO     CLOUDY    70  52  52 E10       29.94R
$$

NYZ026>034-041>043-087-242100-
NORTH


CITY           SKY/WX    TMP DP  RH WIND       PRES   REMARKS
WATERTOWN      SUNNY     73  34  23 SW8       29.93F
FORT DRUM      NOT AVBL
MASSENA        SUNNY     85  39  19 W7        29.86F
SARANAC LAKE   MOSUNNY   79  29  16 VRB5      29.88S
PLATTSBURGH    MOSUNNY   79  46  31 SE13      29.85F
$$

NYZ001>004-010>016-019>021-085-242100-
WEST


CITY           SKY/WX    TMP DP  RH WIND       PRES   REMARKS
NIAGARA FALLS  MOSUNNY   79  46  31 SW16      29.97
BUFFALO        MOSUNNY   71  45  39 SW21      30.00F
DUNKIRK        SUNNY     74  44  34 SW17G24   30.02F
JAMESTOWN        N/A    N/A N/A N/A MISG        N/A
WELLSVILLE     SUNNY     75  35  23 NW15G21   30.05R
ROCHESTER      PTSUNNY   80  34  19 NW9       29.97R
PENN YAN       SUNNY     80  35  19 W10       29.97R
$$

             KEY
       WCI = WIND CHILL INDEX
       VSB = VISIBILITY
       HX  = HEAT INDEX
$$




USA.gov is the U.S. government's official web portal to all federal, state and local government web resources and services.